Arklow Spray — C6VK8 — position and weather

sailwx.info

Track history (hours):
 
Tides and Currents Weather Stations Pressure Air Temp Water Temp Dewpoint Dewpoint Depression Visibility Wind Speed Wind Dir Waves Ship Positions

Arklow Spray

Last reported at 2014-Oct-23 03:34 UTC. Time now 2014-Oct-23 03:48 UTC.
Position N 51°27' E 000°20'.

Length 90 m; draft 4.7 m.

Type: Cargo ship. MMSI: 309914000.

Date/timePositionNaut miles runAvg speedWind from/ knotsBaromVisibWave heightAir tempDewpointWater temp
2014-Oct-23 03:34N 51°27' E 000°20'0 0.0
2014-Oct-23 02:34N 51°27' E 000°20'0 0.0
2014-Oct-23 01:34N 51°27' E 000°20'0 0.0
2014-Oct-23 00:34N 51°27' E 000°20'0 0.0
2014-Oct-22 23:34N 51°27' E 000°20'0 0.0
2014-Oct-22 22:34N 51°27' E 000°20'0 0.0
2014-Oct-22 21:34N 51°27' E 000°20'0 0.0
2014-Oct-22 20:34N 51°27' E 000°20'0 0.0
2014-Oct-22 19:34N 51°27' E 000°20'0 0.0
2014-Oct-22 18:33N 51°27' E 000°20'0 0.0
2014-Oct-22 17:34N 51°27' E 000°20'0 0.0
2014-Oct-22 16:33N 51°27' E 000°20'0 0.0
2014-Oct-22 15:33N 51°27' E 000°20'0 0.0
2014-Oct-22 14:33N 51°27' E 000°20'0 0.0
2014-Oct-22 13:33N 51°27' E 000°20'0 0.0
2014-Oct-22 12:33N 51°27' E 000°20'0 0.0
2014-Oct-22 11:33N 51°27' E 000°20'0 0.0
2014-Oct-22 10:33N 51°27' E 000°20'0 0.0
2014-Oct-22 09:33N 51°27' E 000°20'0 0.0
2014-Oct-22 08:33N 51°27' E 000°20'0 0.0
2014-Oct-22 07:33N 51°27' E 000°20'0 0.0
2014-Oct-22 06:33N 51°27' E 000°20'0 0.0
2014-Oct-22 05:33N 51°27' E 000°20'0 0.0
2014-Oct-22 04:33N 51°27' E 000°20'3 2.8
2014-Oct-22 03:34N 51°27' E 000°25'7 7.2
2014-Oct-22 02:34N 51°30' E 000°35'8 8.2
2014-Oct-22 01:34N 51°30' E 000°48'7 6.6
2014-Oct-22 00:33N 51°29' E 000°59'8 7.8
2014-Oct-21 23:34N 51°29' E 001°11'8 7.9
2014-Oct-21 22:33N 51°29' E 001°24'6 6.5
2014-Oct-21 21:33N 51°25' E 001°32'3 2.9
2014-Oct-21 20:34N 51°23' E 001°35'8 7.6
2014-Oct-21 19:33N 51°15' E 001°37'7 7.1
2014-Oct-21 18:33N 51°08' E 001°33'5 5.1
2014-Oct-21 17:33N 51°04' E 001°37'8 8.1
2014-Oct-21 16:32N 50°57' E 001°29'287 6.4
2014-Oct-19 19:31N 52°22' W 005°53'123 4.1
2014-Oct-18 13:33N 54°23' W 005°16'7 7.1
2014-Oct-18 12:33N 54°30' W 005°17'7 7.3
2014-Oct-18 11:33N 54°37' W 005°22'8 7.8
2014-Oct-18 10:34N 54°43' W 005°30'1110.3
2014-Oct-18 09:30N 54°41' W 005°49'5 0.6
2014-Oct-18 01:03N 54°37' W 005°55'0 0.0
2014-Oct-17 12:29N 54°37' W 005°55'0 0.0
2014-Oct-17 11:20N 54°37' W 005°55'0 0.0
2014-Oct-17 05:05N 54°37' W 005°55'0 0.0
2014-Oct-17 04:17N 54°37' W 005°55'0 0.0
2014-Oct-16 08:08N 54°37' W 005°55'0 0.0
2014-Oct-16 06:23N 54°37' W 005°55'0 0.0
2014-Oct-16 05:11N 54°37' W 005°55'0 0.0
2014-Oct-16 00:31N 54°37' W 005°55'0 0.0
2014-Oct-15 20:23N 54°37' W 005°54'6 7.8
2014-Oct-15 19:33N 54°42' W 005°46'8 7.8
2014-Oct-15 18:33N 54°44' W 005°33'1111.3
2014-Oct-15 17:33N 54°37' W 005°17'1211.7
2014-Oct-15 16:33N 54°26' W 005°09'157 9.2
2014-Oct-14 23:25N 51°60' W 006°42'910.7
2014-Oct-14 22:33N 52°04' W 006°55'10 9.5
2014-Oct-14 21:33N 52°13' W 006°57'6 5.9
2014-Oct-14 20:33N 52°19' W 006°60'  
Track history (hours):
 
Tides and Currents Weather Stations Pressure Air Temp Water Temp Dewpoint Dewpoint Depression Visibility Wind Speed Wind Dir Waves Ship Positions

Arklow Spray

Last reported at 2014-Oct-23 03:34 UTC. Time now 2014-Oct-23 03:48 UTC.
Position N 51°27' E 000°20'.

Length 90 m; draft 4.7 m.

Type: Cargo ship. MMSI: 309914000.

Date/timePositionNaut miles runAvg speedWind from/ knotsBaromVisibWave heightAir tempDewpointWater temp
2014-Oct-23 03:34N 51°27' E 000°20'0 0.0
2014-Oct-23 02:34N 51°27' E 000°20'0 0.0
2014-Oct-23 01:34N 51°27' E 000°20'0 0.0
2014-Oct-23 00:34N 51°27' E 000°20'0 0.0
2014-Oct-22 23:34N 51°27' E 000°20'0 0.0
2014-Oct-22 22:34N 51°27' E 000°20'0 0.0
2014-Oct-22 21:34N 51°27' E 000°20'0 0.0
2014-Oct-22 20:34N 51°27' E 000°20'0 0.0
2014-Oct-22 19:34N 51°27' E 000°20'0 0.0
2014-Oct-22 18:33N 51°27' E 000°20'0 0.0
2014-Oct-22 17:34N 51°27' E 000°20'0 0.0
2014-Oct-22 16:33N 51°27' E 000°20'0 0.0
2014-Oct-22 15:33N 51°27' E 000°20'0 0.0
2014-Oct-22 14:33N 51°27' E 000°20'0 0.0
2014-Oct-22 13:33N 51°27' E 000°20'0 0.0
2014-Oct-22 12:33N 51°27' E 000°20'0 0.0
2014-Oct-22 11:33N 51°27' E 000°20'0 0.0
2014-Oct-22 10:33N 51°27' E 000°20'0 0.0
2014-Oct-22 09:33N 51°27' E 000°20'0 0.0
2014-Oct-22 08:33N 51°27' E 000°20'0 0.0
2014-Oct-22 07:33N 51°27' E 000°20'0 0.0
2014-Oct-22 06:33N 51°27' E 000°20'0 0.0
2014-Oct-22 05:33N 51°27' E 000°20'0 0.0
2014-Oct-22 04:33N 51°27' E 000°20'3 2.8
2014-Oct-22 03:34N 51°27' E 000°25'7 7.2
2014-Oct-22 02:34N 51°30' E 000°35'8 8.2
2014-Oct-22 01:34N 51°30' E 000°48'7 6.6
2014-Oct-22 00:33N 51°29' E 000°59'8 7.8
2014-Oct-21 23:34N 51°29' E 001°11'8 7.9
2014-Oct-21 22:33N 51°29' E 001°24'6 6.5
2014-Oct-21 21:33N 51°25' E 001°32'3 2.9
2014-Oct-21 20:34N 51°23' E 001°35'8 7.6
2014-Oct-21 19:33N 51°15' E 001°37'7 7.1
2014-Oct-21 18:33N 51°08' E 001°33'5 5.1
2014-Oct-21 17:33N 51°04' E 001°37'8 8.1
2014-Oct-21 16:32N 50°57' E 001°29'287 6.4
2014-Oct-19 19:31N 52°22' W 005°53'123 4.1
2014-Oct-18 13:33N 54°23' W 005°16'7 7.1
2014-Oct-18 12:33N 54°30' W 005°17'7 7.3
2014-Oct-18 11:33N 54°37' W 005°22'8 7.8
2014-Oct-18 10:34N 54°43' W 005°30'1110.3
2014-Oct-18 09:30N 54°41' W 005°49'5 0.6
2014-Oct-18 01:03N 54°37' W 005°55'0 0.0
2014-Oct-17 12:29N 54°37' W 005°55'0 0.0
2014-Oct-17 11:20N 54°37' W 005°55'0 0.0
2014-Oct-17 05:05N 54°37' W 005°55'0 0.0
2014-Oct-17 04:17N 54°37' W 005°55'0 0.0
2014-Oct-16 08:08N 54°37' W 005°55'0 0.0
2014-Oct-16 06:23N 54°37' W 005°55'0 0.0
2014-Oct-16 05:11N 54°37' W 005°55'0 0.0
2014-Oct-16 00:31N 54°37' W 005°55'0 0.0
2014-Oct-15 20:23N 54°37' W 005°54'6 7.8
2014-Oct-15 19:33N 54°42' W 005°46'8 7.8
2014-Oct-15 18:33N 54°44' W 005°33'1111.3
2014-Oct-15 17:33N 54°37' W 005°17'1211.7
2014-Oct-15 16:33N 54°26' W 005°09'157 9.2
2014-Oct-14 23:25N 51°60' W 006°42'910.7
2014-Oct-14 22:33N 52°04' W 006°55'10 9.5
2014-Oct-14 21:33N 52°13' W 006°57'6 5.9
2014-Oct-14 20:33N 52°19' W 006°60'  

Dump ship's entire track history